[[{"header":{"parameterUnit":"m.s-1","parameterCategory":1,"la1":30.2991,"la2":30.254,"lo1":-89.0895,"lo2":-89.0444,"dy":0.0017,"dx":0.0017,"nx":28,"ny":28,"refTime":"2024-05-10T09:00:00:Z","depth":0,"parameterNumber":2,"parameterNumberName":"U-component_of_WINDS"},"data":[0,0,0,0,0,0,0,0,0,0,0,0,0,0,0,0,0,0,0,0,0,0,0,0,0,0,0,0,0,0,0,0,0,0,0,0,0,0,0,0,0,0,0,0,0,0,0,0,0,0,0,0,0,0,0,0,0,0,0.0896,0.0897,0,0.0985,0.0986,0.0987,0.1101,0.1103,0.1105,0.1106,0.1196,0.1197,0.1197,0,0,0,0,0,0,0,0,0,0,0,0,0,0.0825,0.0825,0.0896,0.0897,0.0898,0.0985,0.0986,0.0987,0.1101,0.1103,0.1105,0.1107,0.1196,0.1197,0.1197,0,0,0,0,0,0,0,0,0,0,0,0,0,0.0879,0.0826,0.0895,0.0965,0.0972,0.0984,0.0986,0.0987,0.11,0.1103,0.1106,0.1108,0.1196,0.1197,0.1198,0.1148,0,0,0.1201,0.1201,0,0,0,0,0,0,0,0,0.0875,0.0881,0.0954,0.096,0.0968,0.1035,0.0994,0.1041,0.1099,0.1051,0.1106,0.111,0.114,0.1146,0.1156,0.1153,0.1156,0.1201,0.1201,0.1202,0.1202,0,0,0,0,0,0,0,0.0871,0.0878,0.0931,0.0955,0.0963,0.0992,0.1003,0.1003,0.1079,0.1056,0.1064,0.1073,0.1145,0.1155,0.1159,0.1158,0.1201,0.1202,0.1202,0.1203,0.1121,0.1118,0,0,0,0,0,0,0.0857,0.0874,0.0928,0.0934,0.0928,0.0991,0.1003,0.101,0.1079,0.1093,0.1071,0.1078,0.1152,0.1158,0.1163,0.1111,0.1202,0.1203,0.1203,0.1123,0.112,0.1117,0,0,0,0,0,0,0.0855,0.0861,0.0925,0.0906,0.0916,0.0989,0.0997,0.1011,0.1022,0.1091,0.1105,0.1068,0.1154,0.1161,0.1152,0.1116,0.1203,0.1204,0.1127,0.1122,0.1118,0.1006,0,0,0,0,0,0,0.0853,0.086,0.0841,0.0905,0.0917,0.0911,0.0994,0.101,0.1023,0.1034,0.1092,0.1104,0.1157,0.115,0.1153,0.1119,0.1205,0.113,0.1125,0.112,0.1013,0.0998,0.0986,0,0,0,0,0,0.085,0.0805,0.084,0.0846,0.0896,0.0909,0.0916,0.0978,0.102,0.1002,0.1047,0.1102,0.1119,0.1148,0.1152,0.1118,0.1133,0.1126,0.112,0.1019,0.1001,0.0986,0,0,0,0,0,0,0.0734,0.0815,0.0854,0.0829,0.0861,0.0928,0.0908,0.0957,0.0978,0.0987,0.1064,0.1076,0.1057,0.1087,0.1117,0.1075,0.1134,0.1129,0.1056,0.104,0.1026,0.1019,0.1206,0,0,0,0,0,0.0706,0.071,0.078,0.0751,0.0766,0.0834,0.0842,0.0888,0.0924,0.0938,0.0983,0.1016,0.103,0.1036,0.1052,0.1019,0.1034,0.0997,0.0984,0.0972,0.0966,0.0952,0.0938,0.1096,0.1096,0.1097,0,0,0.0647,0.0692,0.069,0.0729,0.076,0.0763,0.0844,0.0843,0.0847,0.0938,0.0932,0.0966,0.1008,0.0987,0.0979,0.1011,0.0926,0.0964,0.0954,0.0955,0.0944,0.0929,0.0916,0.1092,0.1093,0.1094,0,0,0.0542,0.0576,0.0556,0.0586,0.0632,0.0678,0.0673,0.0733,0.0759,0.0754,0.0824,0.0829,0.085,0.0878,0.0894,0.0802,0.0854,0.0806,0.0734,0.0719,0.0707,0.0696,0.0664,0.0652,0.08,0.0799,0.0799,0,0.0463,0.047,0.0539,0.0535,0.0551,0.0635,0.0616,0.0642,0.069,0.0699,0.0734,0.0764,0.0798,0.0785,0.0763,0.0773,0.0771,0.0799,0.0703,0.0693,0.0684,0.0655,0.0642,0.0793,0.0794,0.0794,0.0795,0,0.0371,0.0375,0.0354,0.04,0.0414,0.0401,0.0469,0.0475,0.052,0.0563,0.0558,0.0603,0.063,0.0631,0.0674,0.0624,0.0643,0.0689,0.075,0.0662,0.0635,0.0624,0.0784,0.0786,0.0788,0.079,0,0,0.0193,0.028,0.0271,0.0293,0.0351,0.0356,0.0349,0.0376,0.038,0.0411,0.0408,0.0425,0.0469,0.0488,0.0536,0.0523,0.0449,0.0572,0.0574,0.0548,0.0399,0.0363,0.0349,0.0484,0.0482,0.0481,0.0395,0,0.0099,0.0091,0.0155,0.013,0.0135,0.0217,0.0211,0.0246,0.0286,0.0297,0.0342,0.0353,0.041,0.0422,0.0414,0.046,0.042,0.0467,0.0482,0.0482,0.0468,0.0335,0.0297,0.0214,0.0385,0.0384,0.0382,0,-0.0013,0.0013,-0.0011,0.0051,0.0055,0.0048,0.008,0.0089,0.0132,0.0162,0.0184,0.024,0.0238,0.0297,0.0296,0.0327,0.0337,0.0361,0.0359,0.0363,0.0426,0.0335,0.0188,0.0176,0.0367,0.0368,0.0369,0,-0.014,-0.011,-0.012,-0.0103,-0.0032,-0.0039,-0.0009,0.0036,0.0049,0.0077,0.0087,0.0114,0.0128,0.0148,0.021,0.0247,0.0202,0.0266,0.0228,0.0226,0.0214,0.0214,0.0067,0.022,0.022,0.0221,0.0221,0,-0.0252,-0.027,-0.0176,-0.0182,-0.0199,-0.0125,-0.0144,-0.0106,-0.0066,-0.0063,0.0009,0.001,0.0092,0.0103,0.0152,0.0144,0.015,0.0175,0.0188,0.0168,0.0165,0.0176,0.0183,0.0217,0.0218,0.0219,0.0219,0,-0.0398,-0.0335,-0.0341,-0.0272,-0.0255,-0.027,-0.0211,-0.0214,-0.0168,-0.0165,-0.016,-0.0089,-0.0072,-0.0008,0.0024,0.0057,0.0034,0.006,0.002,0.0028,-0.0013,-0.001,-0.0158,-0.0173,-0.0011,-0.0013,-0.0014,0,-0.0474,-0.0485,-0.0417,-0.041,-0.0383,-0.0372,-0.0358,-0.0285,-0.0272,-0.0223,-0.0232,-0.0209,-0.0187,-0.0163,-0.0108,-0.0083,-0.0056,-0.011,-0.0052,-0.0071,-0.0056,-0.0056,-0.0057,-0.0123,-0.0125,-0.0127,-0.0128,0,-0.0616,-0.0583,-0.0565,-0.0536,-0.052,-0.0494,-0.0463,-0.0461,-0.0379,-0.0369,-0.035,-0.0333,-0.0299,-0.0277,-0.0242,-0.021,-0.0156,-0.0146,-0.0153,-0.0174,-0.0196,-0.0184,-0.0014,-0.0144,-0.0142,-0.0141,-0.014,-0.0139,-0.0728,-0.0734,-0.0686,-0.0668,-0.0636,-0.0609,-0.0607,-0.056,-0.0543,-0.051,-0.0467,-0.0454,-0.0408,-0.0355,-0.0328,-0.0316,-0.0286,-0.0297,-0.0299,-0.0303,-0.0312,-0.0198,-0.0309,-0.0309,-0.0308,-0.0308,-0.0307,0,-0.0866,-0.083,-0.0814,-0.0772,-0.0757,-0.0706,-0.0668,-0.0659,-0.0648,-0.061,-0.0589,-0.0566,-0.0544,-0.0486,-0.0458,-0.0459,-0.0433,-0.0454,-0.0453,-0.0446,-0.0341,-0.0338,-0.0475,-0.0475,-0.0475,-0.0475,-0.0475,-0.0475,-0.0936,-0.0942,-0.0904,-0.0893,-0.0857,-0.0843,-0.0826,-0.0799,-0.0768,-0.0747,-0.0727,-0.0689,-0.0643,-0.061,-0.0586,-0.0569,-0.0562,-0.0592,-0.0567,-0.047,-0.0454,-0.0439,-0.0435,-0.0591,-0.0591,-0.0673,-0.0674,-0.0674]},{"header":{"parameterUnit":"m.s-1","parameterCategory":1,"la1":30.2991,"la2":30.254,"lo1":-89.0895,"lo2":-89.0444,"dy":0.0017,"dx":0.0017,"nx":28,"ny":28,"refTime":"2024-05-10T09:00:00:Z","depth":0,"parameterNumber":3,"parameterNumberName":"V-component_of_WINDS"},"data":[0,0,0,0,0,0,0,0,0,0,0,0,0,0,0,0,0,0,0,0,0,0,0,0,0,0,0,0,0,0,0,0,0,0,0,0,0,0,0,0,0,0,0,0,0,0,0,0,0,0,0,0,0,0,0,0,0,0,-1.3473,-1.3471,0,-1.3361,-1.336,-1.3358,-1.3367,-1.3369,-1.337,-1.3372,-1.3253,-1.3248,-1.3244,0,0,0,0,0,0,0,0,0,0,0,0,0,-1.3693,-1.3689,-1.3473,-1.3471,-1.347,-1.3361,-1.3359,-1.3358,-1.3367,-1.3369,-1.3371,-1.3373,-1.3254,-1.3249,-1.3243,0,0,0,0,0,0,0,0,0,0,0,0,0,-1.3591,-1.3688,-1.3473,-1.3461,-1.3459,-1.3361,-1.3359,-1.3358,-1.3366,-1.3369,-1.3371,-1.3374,-1.3256,-1.3249,-1.3242,-1.3148,0,0,-1.3221,-1.3218,0,0,0,0,0,0,0,0,-1.3596,-1.3583,-1.3464,-1.3462,-1.3459,-1.3381,-1.3394,-1.3287,-1.3365,-1.3401,-1.3372,-1.3375,-1.3293,-1.3283,-1.3256,-1.3142,-1.3137,-1.322,-1.3216,-1.3213,-1.3211,0,0,0,0,0,0,0,-1.3604,-1.3587,-1.3428,-1.3463,-1.346,-1.3461,-1.345,-1.3373,-1.3334,-1.3398,-1.3399,-1.3386,-1.3292,-1.3263,-1.3254,-1.3135,-1.322,-1.3214,-1.321,-1.3207,-1.2944,-1.2941,0,0,0,0,0,0,-1.3614,-1.3593,-1.3432,-1.3425,-1.3536,-1.3455,-1.3442,-1.3403,-1.3335,-1.3327,-1.3384,-1.3386,-1.3274,-1.3262,-1.3249,-1.3139,-1.3213,-1.3206,-1.3202,-1.2947,-1.2943,-1.294,0,0,0,0,0,0,-1.3618,-1.3599,-1.3436,-1.3509,-1.3489,-1.3449,-1.3405,-1.34,-1.3371,-1.3324,-1.3317,-1.3361,-1.3276,-1.3259,-1.3175,-1.3134,-1.3203,-1.3196,-1.295,-1.2946,-1.2942,-1.2914,0,0,0,0,0,0,-1.3625,-1.3601,-1.3564,-1.3508,-1.3485,-1.3364,-1.3402,-1.3396,-1.3359,-1.3362,-1.3301,-1.3294,-1.3276,-1.3185,-1.3168,-1.3126,-1.3191,-1.2953,-1.2948,-1.2943,-1.2918,-1.2909,-1.2901,0,0,0,0,0,-1.3632,-1.3559,-1.3562,-1.3543,-1.3439,-1.3361,-1.3348,-1.3331,-1.3356,-1.3319,-1.329,-1.3295,-1.3141,-1.3176,-1.3157,-1.3112,-1.2956,-1.2949,-1.2943,-1.2922,-1.2911,-1.2902,0,0,0,0,0,0,-1.3608,-1.3551,-1.3554,-1.346,-1.3416,-1.3363,-1.3316,-1.3319,-1.3265,-1.3269,-1.3249,-1.3235,-1.3151,-1.3123,-1.3163,-1.302,-1.3052,-1.3041,-1.3042,-1.3031,-1.3023,-1.3033,-1.3185,0,0,0,0,0,-1.3592,-1.3535,-1.3487,-1.3409,-1.3387,-1.3355,-1.3321,-1.3312,-1.3265,-1.3245,-1.3209,-1.3162,-1.3104,-1.3065,-1.3008,-1.2913,-1.2902,-1.2873,-1.2865,-1.2859,-1.285,-1.2803,-1.2791,-1.292,-1.292,-1.292,0,0,-1.3557,-1.3519,-1.3484,-1.3403,-1.3368,-1.331,-1.3339,-1.3275,-1.3232,-1.3235,-1.3155,-1.3127,-1.3073,-1.2984,-1.2943,-1.2958,-1.2812,-1.2851,-1.2846,-1.2841,-1.2795,-1.2783,-1.2772,-1.2916,-1.2917,-1.2917,0,0,-1.3466,-1.343,-1.3364,-1.3329,-1.3276,-1.3256,-1.3241,-1.3188,-1.3171,-1.309,-1.3092,-1.304,-1.2938,-1.2902,-1.287,-1.277,-1.2775,-1.2752,-1.2709,-1.2663,-1.2653,-1.2644,-1.2612,-1.2601,-1.2743,-1.2743,-1.2743,0,-1.343,-1.3343,-1.3328,-1.3266,-1.3232,-1.3235,-1.3168,-1.3134,-1.3065,-1.3041,-1.3059,-1.2936,-1.2899,-1.2804,-1.2781,-1.2753,-1.2736,-1.2759,-1.2656,-1.2647,-1.2638,-1.2608,-1.2595,-1.2741,-1.2741,-1.2742,-1.2742,0,-1.3304,-1.3244,-1.3196,-1.3134,-1.3094,-1.3029,-1.3005,-1.2966,-1.2962,-1.2941,-1.2861,-1.2818,-1.2755,-1.2731,-1.2724,-1.2636,-1.2648,-1.266,-1.2693,-1.2624,-1.2595,-1.2583,-1.2738,-1.2739,-1.274,-1.274,0,0,-1.3192,-1.3126,-1.3109,-1.3083,-1.3027,-1.298,-1.2916,-1.2858,-1.2827,-1.2779,-1.2727,-1.2644,-1.2657,-1.2621,-1.261,-1.2569,-1.2499,-1.2588,-1.2587,-1.2576,-1.2404,-1.2398,-1.2384,-1.2501,-1.2499,-1.2497,-1.241,0,-1.3099,-1.2989,-1.2976,-1.2878,-1.2825,-1.2829,-1.2774,-1.2735,-1.2714,-1.2665,-1.2641,-1.2585,-1.2604,-1.2583,-1.2543,-1.2516,-1.2465,-1.2522,-1.2454,-1.2452,-1.2471,-1.2368,-1.2359,-1.228,-1.2399,-1.2397,-1.2395,0,-1.2974,-1.2928,-1.2826,-1.2783,-1.276,-1.2711,-1.2659,-1.2612,-1.2568,-1.2556,-1.2518,-1.2514,-1.245,-1.2484,-1.2397,-1.2436,-1.2408,-1.2391,-1.2387,-1.2382,-1.2421,-1.2364,-1.2254,-1.2243,-1.2376,-1.2378,-1.2379,0,-1.2909,-1.282,-1.275,-1.2726,-1.2672,-1.2639,-1.2615,-1.2573,-1.254,-1.2494,-1.2473,-1.2418,-1.2389,-1.2347,-1.2329,-1.2355,-1.2245,-1.2276,-1.2235,-1.2235,-1.2213,-1.2215,-1.21,-1.2189,-1.2189,-1.219,-1.219,0,-1.2808,-1.2746,-1.2721,-1.2677,-1.261,-1.2595,-1.2529,-1.2505,-1.2469,-1.2422,-1.242,-1.2376,-1.2354,-1.2306,-1.2291,-1.2224,-1.2209,-1.2199,-1.2197,-1.2201,-1.2203,-1.2184,-1.219,-1.2187,-1.2187,-1.2188,-1.2188,0,-1.2724,-1.2704,-1.2628,-1.2585,-1.2573,-1.2525,-1.2488,-1.2447,-1.2428,-1.2368,-1.2354,-1.2323,-1.2268,-1.2245,-1.2176,-1.2166,-1.209,-1.209,-1.2106,-1.2106,-1.2068,-1.2073,-1.1939,-1.1922,-1.202,-1.2019,-1.2018,0,-1.2662,-1.2615,-1.2569,-1.2539,-1.2515,-1.2465,-1.2433,-1.2417,-1.2384,-1.2333,-1.2298,-1.2244,-1.2199,-1.2111,-1.2082,-1.2031,-1.2031,-1.1988,-1.2023,-1.2031,-1.2035,-1.204,-1.2037,-1.1982,-1.1981,-1.198,-1.1979,0,-1.2555,-1.2549,-1.2504,-1.2456,-1.2419,-1.2379,-1.2341,-1.2316,-1.2295,-1.2258,-1.2203,-1.2169,-1.2101,-1.2048,-1.1995,-1.197,-1.1972,-1.1969,-1.1957,-1.1963,-1.1976,-1.1972,-1.2092,-1.1972,-1.1973,-1.1973,-1.1974,-1.1974,-1.2483,-1.2444,-1.2408,-1.2358,-1.2329,-1.2294,-1.2255,-1.2233,-1.2188,-1.2133,-1.2126,-1.2068,-1.2029,-1.1959,-1.1932,-1.1887,-1.1898,-1.188,-1.1876,-1.1873,-1.1873,-1.1981,-1.1877,-1.1877,-1.1877,-1.1877,-1.1877,0,-1.238,-1.2358,-1.2313,-1.2262,-1.2224,-1.2231,-1.219,-1.2158,-1.2108,-1.2072,-1.203,-1.1969,-1.1918,-1.1887,-1.1837,-1.1807,-1.1807,-1.1794,-1.1798,-1.1793,-1.1863,-1.1881,-1.1796,-1.1796,-1.1796,-1.1796,-1.1796,-1.1796,-1.2323,-1.2259,-1.2249,-1.2172,-1.2149,-1.2095,-1.2072,-1.2041,-1.2013,-1.1946,-1.1905,-1.1886,-1.1853,-1.18,-1.1755,-1.1747,-1.173,-1.1718,-1.1711,-1.1778,-1.1787,-1.1795,-1.1811,-1.1713,-1.1713,-1.1645,-1.1644,-1.1644]}]]